sat.trackr.live / text

‹ back to catalog

STARLINK-32661

NORAD 62899 · 2025-024W

PAYLOAD ACTIVE UNKNOWN

§ Identity

Operator
Country
US
Launch date
2025-02-04
Launch site
AFETR
Launch vehicle
Mass (kg)
RCS (m²)

Purposes: comms

External: N2YO · Heavens-Above · Gunter

§ Orbital elements

Epoch: 2026-05-24T15:35:06.628992Z

Period
94.27 min
Inclination
43.0004°
Eccentricity
0.0001534
Mean motion
15.27591484 rev/d
Perigee alt
482.0 km
Apogee alt
484.1 km
Semi-major
6,861.2 km
B*
4.1974e-4
RAAN
256.3276°
Arg perigee
281.2671°
Mean anomaly
78.8008°
Rev number
7,388

§ Raw data

STARLINK-326611 62899U 25024W   26144.64938228  .00011310  00000+0  41974-3 0  99992 62899  43.0004 256.3276 0001534 281.2671  78.8008 15.27591484 73881

JSON: /api/v1/satellites/62899 · /tle

For live sub-satellite position, see the globe view (requires WebGL).

§ Visibility from observer

Set your observer location to see the next 7 days of passes ≥ 10°. The values pass through the URL so the page stays shareable.

No JS? Fill the form by hand. The geolocation button needs JavaScript.